Regional Weather Roundup
Issued by NWS

Home | Current Version | Previous Version | Graphics & Text | Print | Product List | Glossary On
Versions: 1 2 3 4 5 6 7 8 9 10 11 12 13 14 15 16 17 18 19 20 21 22 23 24 25 26 27 28 29 30 31 32 33 34 35 36 37 38 39 40 41 42 43 44 45 46 47 48 49 50
113
ASUS44 KLIX 231901
RWRLA
LOUISIANA WEATHER ROUNDUP
NATIONAL WEATHER SERVICE NEW ORLEANS LA
200 PM CDT WED APR 23 2014

NOTE: "FAIR" INDICATES FEW OR NO CLOUDS BELOW 12,000 FEET WITH NO
      SIGNIFICANT WEATHER AND/OR OBSTRUCTIONS TO VISIBILITY.
      SKY/WX - SKY CONDITION AND SIGNIFICANT WEATHER.
      TMP - AIR TEMPERATURE.    DP   - DEWPOINT TEMPERATURE.
      RH  - RELATIVE HUMIDITY.  PRES - PRESSURE.
      HX  - HEAT INDEX.         WCI  - WIND CHILL INDEX.

*  THESE STATIONS ARE NOT NWS OR FAA STATIONS AND ARE NOT UNDER
   NWS QUALITY CONTROL.

LAZ040-048-061>063-065-066-069-232000-
SOUTHEAST LOUISIANA

CITY           SKY/WX    TMP DP  RH WIND       PRES   REMARKS
N.O. AUDUBON     N/A     84  61  45 MISG        N/A
N.O. INTL ARPT MOSUNNY   81  59  47 N8        29.95F
N.O. LAKEFRONT SUNNY     77  64  64 NW7       29.96F
N.O. DOWNTOWN* CLOUDY    81  57  44 E3        29.96S
SLIDELL        PTSUNNY   80  62  54 SW7       29.94F
BATON ROUGE    MOSUNNY   84  53  34 VRB5      29.95F
BOOTHVILLE     SUNNY     77  62  59 E3        29.97F
BELLE CHASSE   PTSUNNY   82  59  45 S5        29.94F
BOGALUSA*        N/A     82  51  33 CALM      29.96S
GALLIANO*      NOT AVBL
NEW ROADS*     NOT AVBL
GONZALES*      NOT AVBL
HAMMOND*       NOT AVBL
HOUMA*         MOSUNNY   82  55  39 N5        29.95F
PORT FOURCHON* PTCLDY    77  64  65 VRB5      29.98S

$$

LAZ041-044-053-054-232000-
SOUTHWEST LOUISIANA

CITY           SKY/WX    TMP DP  RH WIND       PRES   REMARKS
LAKE CHARLES   CLOUDY    80  59  48 VRB7      29.95F
LAFAYETTE      SUNNY     82  56  40 CALM      29.95F
PATTERSON      CLOUDY    79  57  47 E5        29.99F
SALT POINT       N/A     80  67  64 SW6       29.96F
NEW IBERIA     PTSUNNY   80  56  43 CALM      29.96F
CHENAULT AIRPK MOSUNNY   82  61  47 SE7       29.98S

$$

LAZ027-028-232000-
CENTRAL LOUISIANA

CITY           SKY/WX    TMP DP  RH WIND       PRES   REMARKS
FORT POLK      PTSUNNY   78  57  48 S6        29.95F
ALEXANDRIA INT PTSUNNY   81  57  43 SE6       29.94F
ALEXANDRIA     SUNNY     84  49  29 E6        29.95F

$$

LAZ001-002-232000-
NORTHWEST LOUISIANA

CITY           SKY/WX    TMP DP  RH WIND       PRES   REMARKS
SHREVEPORT     MOSUNNY   84  59  42 S8        29.92F
BARKSDALE AFB  SUNNY     83  55  38 S10       29.93F
DTN SHREVEPORT SUNNY     80  59  48 SE10      29.93F

$$

LAZ014-016-232000-
NORTHEAST LOUISIANA

CITY           SKY/WX    TMP DP  RH WIND       PRES   REMARKS
MONROE         SUNNY     81  48  31 SE6       29.97F
TALLULAH       SUNNY     80  46  30 NE7       29.97F

$$




USA.gov is the U.S. government's official web portal to all federal, state and local government web resources and services.